Regional Weather Roundup
Issued by NWS Northern Indiana

Home | Current Version | Previous Version | Graphics & Text | Print | Product List | Glossary On
Versions: 1 2 3 4 5 6 7 8 9 10 11 12 13 14 15 16 17 18 19 20 21 22 23 24 25 26 27 28 29 30 31 32 33 34 35 36 37 38 39 40 41 42 43 44 45 46 47 48 49 50
000
ASUS43 KIWX 122310
RWRIWX

KIWX WEATHER ROUNDUP
NATIONAL WEATHER SERVICE NORTHERN INDIANA
600 PM EST FRI FEB 12 2016

NOTE: "FAIR" INDICATES FEW OR NO CLOUDS BELOW 12,000 FEET WITH NO
SIGNIFICANT WEATHER AND/OR OBSTRUCTIONS TO VISIBILITY.

* THESE STATIONS ARE NOT UNDER NWS QUALITY CONTROL. THEY ALSO MAY NOT
  REPORT WEATHER SUCH AS PRECIPITATION OR FOG.

INZ001>027-130000-
NORTHERN INDIANA

CITY           SKY/WX    TMP DP  RH WIND       PRES   REMARKS
GARY*          PTCLDY    23  -2  33 NW15G31   30.23R WCI  10
VALPARAISO     CLOUDY    20   3  48 NW12G23   30.18R WCI   8
MICHIGAN CITY* CLOUDY    21   5  49 NW14G28   30.19R WCI   8
LAPORTE*       MOCLDY    21   8  56 NW15G25   30.17R WCI   8
KNOX*          MOCLDY    21   7  53 NW17G23   30.18R WCI   7
SOUTH BEND     CLOUDY    18   5  57 NW18G26   30.15R WCI   2
ELKHART*       LGT SNOW  19   7  58 NW56      30.14R WCI  -5
GOSHEN         LGT SNOW  17  11  77 NW17G23   30.13R WCI   1
MONTICELLO*    CLOUDY    23   4  44 NW18G26   30.18R WCI   9
LOGANSPORT*    CLOUDY    23   5  46 NW14G23   30.17R WCI  11
ROCHESTER*     PTCLDY    23   3  42 NW16G25   30.16R WCI  10
WARSAW*        LGT SNOW  18  14  86 W15G23    30.13R WCI   3
ANGOLA*        MOCLDY    16  10  79 NW15      30.06R WCI   1
FORT WAYNE     FLURRIES  19  11  70 NW15G25   30.12R WCI   5
HUNTINGTON*    CLEAR     19   4  52 NW14G20   30.13R WCI   5
PERU/GRISSOM   MOCLDY    22  10  57 NW15      30.13R WCI   9
MARION*        CLOUDY    21   7  53 NW17      30.14R WCI   7

$$
INZ028>050-130000-
CENTRAL INDIANA

CITY           SKY/WX    TMP DP  RH WIND       PRES   REMARKS
LAFAYETTE      PTCLDY    23   4  44 NW22G35   30.20R WCI   8
KOKOMO*        CLOUDY    21   9  58 NW28      30.14R WCI   3
MUNCIE*        MOCLDY    22  11  62 NW16G23   30.12R WCI   8
INDIANAPOLIS   MOCLDY    23  10  57 W23G31    30.18R WCI   7

$$
MIZ043>046-050>051-056>058-064>065-071>073-077>080-130000-
SOUTHWEST LOWER MICHIGAN

CITY           SKY/WX    TMP DP  RH WIND       PRES   REMARKS
BATTLE CREEK   LGT SNOW  16   9  74 NW14G22   30.08R WCI   2
BENTON HARBOR  CLOUDY    19   2  47 NW15G35   30.17R HAZE    WCI   5
COLDWATER*     PTCLDY    17   9  72 NW16G28   30.07R HAZE    WCI   1
HILLSDALE*     LGT SNOW  15   9  76 NW20      30.02R WCI  -2
HOLLAND        SNOW      16  10  77 NW15G30   30.14R VSB 1/2 WCI   1
GRAND RAPIDS   FLURRIES  16   7  67 NW21G26   30.09R WCI  -1
KALAMAZOO      LGT SNOW  16  10  77 NW16      30.10R VSB 3/4 WCI   1
STURGIS*       MOCLDY    16   9  75 NW13G18   30.09R WCI   2
THREE RIVERS*  LGT SNOW  17  11  76 NW18      30.11R WCI   1

$$
OHZ001>008-015>018-024>025-130000-
NORTHWEST OHIO

CITY           SKY/WX    TMP DP  RH WIND       PRES   REMARKS
DEFIANCE       LGT SNOW  19  12  74 NW18G24   30.09R WCI   4
FINDLAY        MOCLDY    21   9  59 NW21G31   30.03R WCI   5
TOLEDO EXPRESS PTCLDY    19   8  62 W17G25    30.04R WCI   4
TOLEDO METCALF CLOUDY    20   9  62 W18G29    30.04R WCI   5
LIMA           MOCLDY    20   8  60 NW23G30   30.05R WCI   3

$$
AND FOR LAKE MICHIGAN COASTAL AND OPEN LAKE BUOY OBSERVATIONS

STATION/POSITION TEMP    WIND        PRES    VSBY  WAVE
                 AIR SEA DIR/SP/G                  HT/PER
                 (F)     (DEG/KT/KT) (MB)    (MI)  (FT/S)
CALUMET HARBOR    21     300/ 13/ 19 1021.9R
MICHIGAN CITY     21     290/ 28/ 31   N/A
BURNS HARBOR      21     300/ 20/ 22 1023.0R
SAINT JOSEPH      20     310/ 28/ 34 1022.4R

$$
&&



USA.gov is the U.S. government's official web portal to all federal, state and local government web resources and services.